Regional Weather Roundup
Issued by NWS

Home | Current Version | Previous Version | Text Only | Print | Product List | Glossary Off
Versions: 1 2 3 4 5 6 7 8 9 10 11 12 13 14 15 16 17 18 19 20 21 22 23 24 25 26 27 28 29 30 31 32 33 34 35 36 37 38 39 40 41 42 43 44 45 46 47 48 49 50

000
ASUS43 KOAX 251202
RWRNE

WEATHER ROUNDUP FOR NEBRASKA
NATIONAL WEATHER SERVICE OMAHA NE
600 AM CST THU DEC 25 2014

NOTES: SATELLITE DATA IS BEING USED TO AUGMENT CLOUD COVER ABOVE
       12000 FEET.
       "FAIR" INDICATES FEW OR NO CLOUDS BELOW 12,000 FEET WITH NO
       SIGNIFICANT WEATHER AND/OR OBSTRUCTIONS TO VISIBILITY.

  * THESE STATIONS DO NOT REPORT WEATHER SUCH AS RAIN...SNOW OR FOG.

NEZ001>004-019>022-054>056-251300-
NEBRASKA PANHANDLE

CITY           SKY/WX    TMP DP  RH WIND       PRES   REMARKS
SCOTTSBLUFF    CLOUDY    36  27  69 NE14      29.40F WCI  27
6HR MIN TEMP:  34; 6HR MAX TEMP:  39; 6HR PCP: TRACE;

ALLIANCE       CLOUDY    28  25  88 NE5       29.41F WCI  23
6HR MIN TEMP:  24; 6HR MAX TEMP:  32; 6HR PCP: TRACE;

CHADRON        CLOUDY    30  24  78 NE7       29.49R WCI  23
6HR MIN TEMP:  25; 6HR MAX TEMP:  34; 6HR PCP: TRACE;

SIDNEY         MOCLDY    28  22  78 CALM      29.41R
6HR MIN TEMP:  28; 6HR MAX TEMP:  36;

$$

NEZ057>060-069>072-079>082-251300-
SOUTHWEST NEBRASKA

CITY           SKY/WX    TMP DP  RH WIND       PRES   REMARKS
NORTH PLATTE   CLEAR     25  20  81 NE6       29.44F WCI  18
6HR MIN TEMP:  21; 6HR MAX TEMP:  33;

IMPERIAL       MOCLDY    26  20  77 VRB3      29.40S
6HR MIN TEMP:  24; 6HR MAX TEMP:  35;

LEXINGTON      MOCLDY    26  23  87 E7        29.46F WCI  19
MCCOOK         CLEAR     26  21  81 E8        29.42F WCI  18
6HR MIN TEMP:  25; 6HR MAX TEMP:  35;

$$

NEZ005>010-023>029-035>040-094-251300-
NORTH CENTRAL NEBRASKA

CITY           SKY/WX    TMP DP  RH WIND       PRES   REMARKS
VALENTINE      CLOUDY    30  26  85 W7        29.49R WCI  23
6HR MIN TEMP:  26; 6HR MAX TEMP:  33;

AINSWORTH      MOCLDY    30  25  82 NW6       29.47S WCI  24
BROKEN BOW     PTCLDY    26  22  84 CALM      29.47R
6HR MIN TEMP:  25; 6HR MAX TEMP:  35;

O`NEILL        CLOUDY    29  27  90 S6        29.50R WCI  23
ORD            MOCLDY    26  24  92 SE5       29.50R WCI  20
6HR MIN TEMP:  26; 6HR MAX TEMP:  31;

$$

NEZ041-046>049-061>064-073>077-083>087-251300-
SOUTH CENTRAL NEBRASKA

CITY           SKY/WX    TMP DP  RH WIND       PRES   REMARKS
GRAND ISLAND   CLOUDY    30  22  72 S6        29.53F WCI  24
6HR MIN TEMP:  29; 6HR MAX TEMP:  35;

HASTINGS       MOCLDY    31  21  66 S12       29.50F WCI  22
6HR MIN TEMP:  30; 6HR MAX TEMP:  34;

HEBRON         MOCLDY    32  24  70 S8        29.58S WCI  25
KEARNEY *      MOCLDY    27  19  74 E6        29.49F WCI  20
$$

NEZ011>018-030>034-042>045-251300-
NORTHEAST NEBRASKA

CITY           SKY/WX    TMP DP  RH WIND       PRES   REMARKS
NORFOLK        CLOUDY    31  23  72 S6        29.54S WCI  25
6HR MIN TEMP:  29; 6HR MAX TEMP:  32;

BLAIR          CLOUDY    33  28  80 S10       29.60S WCI  25
COLUMBUS *     CLOUDY    34  21  60 S7        29.57F WCI  28
TEKAMAH        CLOUDY    31  28  89 SE8       29.61F WCI  23
6HR MIN TEMP:  29; 6HR MAX TEMP:  31;

WAYNE          CLOUDY    30  26  84 S7        29.55S WCI  23
$$

NEZ050>053-065>068-078-088>093-251300-
SOUTHEAST NEBRASKA

CITY           SKY/WX    TMP DP  RH WIND       PRES   REMARKS
LINCOLN        CLOUDY    33  26  75 S9        29.61F WCI  25
6HR MIN TEMP:  27; 6HR MAX TEMP:  34;

OMAHA EPPLEY   CLOUDY    32  28  85 S12       29.65S WCI  23
6HR MIN TEMP:  29; 6HR MAX TEMP:  32;

FALLS CITY     PTCLDY    32  26  78 S13       29.70S WCI  22
6HR MIN TEMP:  30; 6HR MAX TEMP:  32;

NEBRASKA CITY  CLOUDY    32  26  78 S13       29.65F WCI  22
$$

NEZ044-045-051>053-067-251300-
OMAHA AREA

CITY           SKY/WX    TMP DP  RH WIND       PRES   REMARKS
OMAHA EPPLEY   CLOUDY    32  28  85 S12       29.65S WCI  23
6HR MIN TEMP:  29; 6HR MAX TEMP:  32;

BLAIR          CLOUDY    33  28  80 S10       29.60S WCI  25
OFFUTT AFB     CLOUDY    30  27  88 SE7       29.64S WCI  24
WAHOO          FAIR      32  27  80 S7        29.60S WCI  26
$$


USA.gov is the U.S. government's official web portal to all federal, state and local government web resources and services.